| time (UTC) | temp F | wind direction | speed MPH | gust MPH | rain 1hr in | rain 24hr in | rain mn in | humidity % | barometer mb |
| 20260507155046 | 58 | 268 | 11.0 | 15.0 | 0.00 | 0.00 | 0.00 | 56 | |
| 20260507154545 | 59 | 270 | 9.0 | 16.0 | 0.00 | 0.00 | 0.00 | 54 | |
| 20260507154044 | 60 | 260 | 11.0 | 16.0 | 0.00 | 0.00 | 0.00 | 53 | |
| 20260507153541 | 60 | 280 | 8.0 | 16.0 | 0.00 | 0.00 | 0.00 | 52 | |
| 20260507153040 | 59 | 270 | 8.0 | 16.0 | 0.00 | 0.00 | 0.00 | 56 | |
| 20260507152540 | 59 | 275 | 10.0 | 16.0 | 0.00 | 0.00 | 0.00 | 51 | |
| 20260507152038 | 59 | 267 | 10.0 | 16.0 | 0.00 | 0.00 | 0.00 | 53 | |
| 20260507151537 | 59 | 267 | 8.0 | 14.0 | 0.00 | 0.00 | 0.00 | 56 | |
| 20260507151036 | 59 | 277 | 6.0 | 14.0 | 0.00 | 0.00 | 0.00 | 57 | |
| 20260507150535 | 59 | 264 | 8.0 | 15.0 | 0.00 | 0.00 | 0.00 | 58 | |
| 20260507150034 | 58 | 259 | 10.0 | 17.0 | 0.00 | 0.00 | 0.00 | 58 | |
| 20260507145533 | 58 | 268 | 11.0 | 17.0 | 0.00 | 0.00 | 0.00 | 59 | |
| 20260507145032 | 59 | 275 | 10.0 | 16.0 | 0.00 | 0.00 | 0.00 | 59 | |
| 20260507144531 | 59 | 264 | 10.0 | 16.0 | 0.00 | 0.00 | 0.00 | 56 | |
| 20260507144031 | 59 | 271 | 9.0 | 15.0 | 0.00 | 0.00 | 0.00 | 57 | |
| 20260507143529 | 58 | 297 | 10.0 | 15.0 | 0.00 | 0.00 | 0.00 | 57 | |
| 20260507143029 | 59 | 266 | 9.0 | 15.0 | 0.00 | 0.00 | 0.00 | 59 | |
| 20260507142528 | 59 | 252 | 9.0 | 17.0 | 0.00 | 0.00 | 0.00 | 59 | |
| 20260507142027 | 59 | 245 | 10.0 | 17.0 | 0.00 | 0.00 | 0.00 | 59 | |
| 20260507141526 | 60 | 258 | 9.0 | 15.0 | 0.00 | 0.00 | 0.00 | 59 | |
| 20260507141025 | 60 | 256 | 10.0 | 15.0 | 0.00 | 0.00 | 0.00 | 55 | |
| 20260507140523 | 59 | 263 | 7.0 | 13.0 | 0.00 | 0.00 | 0.00 | 54 | |
| 20260507140019 | 59 | 270 | 7.0 | 14.0 | 0.00 | 0.00 | 0.00 | 57 | |
| 20260507135518 | 60 | 265 | 9.0 | 16.0 | 0.00 | 0.00 | 0.00 | 57 | |
| 20260507135018 | 60 | 254 | 10.0 | 16.0 | 0.00 | 0.00 | 0.00 | 57 | |
| 20260507134514 | 60 | 271 | 10.0 | 19.0 | 0.00 | 0.00 | 0.00 | 59 | |
| 20260507134013 | 60 | 258 | 11.0 | 19.0 | 0.00 | 0.00 | 0.00 | 58 | |
| 20260507133512 | 60 | 264 | 9.0 | 17.0 | 0.00 | 0.00 | 0.00 | 55 | |
| 20260507133010 | 60 | 257 | 11.0 | 17.0 | 0.00 | 0.00 | 0.00 | 57 | |
| 20260507132509 | 60 | 268 | 10.0 | 17.0 | 0.00 | 0.00 | 0.00 | 55 | |
| 20260507132009 | 60 | 244 | 10.0 | 15.0 | 0.00 | 0.00 | 0.00 | 54 | |
| 20260507131508 | 59 | 264 | 8.0 | 15.0 | 0.00 | 0.00 | 0.00 | 54 | |
| 20260507131007 | 59 | 274 | 8.0 | 15.0 | 0.00 | 0.00 | 0.00 | 58 | |
| 20260507130506 | 59 | 269 | 9.0 | 18.0 | 0.00 | 0.00 | 0.00 | 59 | |
| 20260507130005 | 59 | 252 | 11.0 | 18.0 | 0.00 | 0.00 | 0.00 | 62 | |
| 20260507125504 | 59 | 270 | 10.0 | 18.0 | 0.00 | 0.00 | 0.00 | 61 | |
| 20260507125003 | 59 | 260 | 8.0 | 16.0 | 0.00 | 0.00 | 0.00 | 60 | |
| 20260507124502 | 59 | 251 | 9.0 | 15.0 | 0.00 | 0.00 | 0.00 | 62 | |
| 20260507123959 | 59 | 253 | 9.0 | 15.0 | 0.00 | 0.00 | 0.00 | 62 | |
| 20260507123458 | 58 | 267 | 11.0 | 16.0 | 0.00 | 0.00 | 0.00 | 63 | |
| 20260507122957 | 59 | 263 | 11.0 | 16.0 | 0.00 | 0.00 | 0.00 | 64 | |
| 20260507122456 | 58 | 259 | 9.0 | 17.0 | 0.00 | 0.00 | 0.00 | 65 | |
| 20260507121955 | 58 | 265 | 9.0 | 17.0 | 0.00 | 0.00 | 0.00 | 64 | |
| 20260507121454 | 58 | 257 | 8.0 | 15.0 | 0.00 | 0.00 | 0.00 | 66 | |
| 20260507120953 | 58 | 269 | 8.0 | 17.0 | 0.00 | 0.00 | 0.00 | 67 | |
| 20260507120453 | 58 | 259 | 11.0 | 18.0 | 0.00 | 0.00 | 0.00 | 67 | |
| 20260507115952 | 58 | 261 | 11.0 | 18.0 | 0.00 | 0.00 | 0.00 | 67 | |
| 20260507115451 | 58 | 262 | 11.0 | 18.0 | 0.00 | 0.00 | 0.00 | 67 | |
| 20260507114950 | 59 | 247 | 9.0 | 14.0 | 0.00 | 0.00 | 0.00 | 67 | |
| 20260507114449 | 59 | 259 | 10.0 | 15.0 | 0.00 | 0.00 | 0.00 | 66 | |
| 20260507113948 | 59 | 233 | 9.0 | 15.0 | 0.00 | 0.00 | 0.00 | 65 | |
| 20260507113447 | 59 | 261 | 9.0 | 15.0 | 0.00 | 0.00 | 0.00 | 61 | |
| 20260507112946 | 60 | 256 | 8.0 | 13.0 | 0.00 | 0.00 | 0.00 | 61 | |
| 20260507112443 | 59 | 260 | 7.0 | 13.0 | 0.00 | 0.00 | 0.00 | 60 | |
| 20260507111942 | 59 | 230 | 9.0 | 14.0 | 0.00 | 0.00 | 0.00 | 60 | |
| 20260507111441 | 59 | 248 | 7.0 | 13.0 | 0.00 | 0.00 | 0.00 | 61 | |
| 20260507110940 | 59 | 263 | 8.0 | 15.0 | 0.00 | 0.00 | 0.00 | 62 | |
| 20260507110439 | 60 | 264 | 7.0 | 15.0 | 0.00 | 0.00 | 0.00 | 62 | |
| 20260507105938 | 60 | 244 | 7.0 | 14.0 | 0.00 | 0.00 | 0.00 | 60 | |
| 20260507105437 | 60 | 255 | 6.0 | 15.0 | 0.00 | 0.00 | 0.00 | 60 | |
| 20260507104936 | 60 | 258 | 6.0 | 11.0 | 0.00 | 0.00 | 0.00 | 60 | |
| 20260507104436 | 60 | 239 | 4.0 | 9.0 | 0.00 | 0.00 | 0.00 | 60 | |
| 20260507103934 | 59 | 281 | 5.0 | 12.0 | 0.00 | 0.00 | 0.00 | 60 | |
| 20260507103429 | 59 | 279 | 6.0 | 12.0 | 0.00 | 0.00 | 0.00 | 63 | |
| 20260507102928 | 59 | 275 | 7.0 | 12.0 | 0.00 | 0.00 | 0.00 | 61 | |
| 20260507102427 | 59 | 271 | 6.0 | 13.0 | 0.00 | 0.00 | 0.00 | 62 | |
| 20260507101927 | 60 | 267 | 8.0 | 13.0 | 0.00 | 0.00 | 0.00 | 62 | |
| 20260507101426 | 60 | 255 | 8.0 | 12.0 | 0.00 | 0.00 | 0.00 | 62 | |
| 20260507100925 | 59 | 263 | 6.0 | 11.0 | 0.00 | 0.00 | 0.00 | 62 | |
| 20260507100424 | 60 | 250 | 8.0 | 11.0 | 0.00 | 0.00 | 0.00 | 63 | |
| 20260507095923 | 60 | 265 | 8.0 | 12.0 | 0.00 | 0.00 | 0.00 | 64 | |
| 20260507095422 | 59 | 272 | 6.0 | 12.0 | 0.00 | 0.00 | 0.00 | 62 | |
| 20260507094919 | 60 | 239 | 6.0 | 13.0 | 0.00 | 0.00 | 0.00 | 63 | |
| 20260507094418 | 60 | 250 | 10.0 | 13.0 | 0.00 | 0.00 | 0.00 | 62 | |
| 20260507093917 | 60 | 262 | 8.0 | 11.0 | 0.00 | 0.00 | 0.00 | 60 | |
| 20260507093416 | 60 | 261 | 6.0 | 10.0 | 0.00 | 0.00 | 0.00 | 59 | |
| 20260507092913 | 61 | 265 | 8.0 | 10.0 | 0.00 | 0.00 | 0.00 | 59 | |
| 20260507092412 | 61 | 260 | 7.0 | 10.0 | 0.00 | 0.00 | 0.00 | 56 | |
| 20260507091910 | 63 | 238 | 5.0 | 10.0 | 0.00 | 0.00 | 0.00 | 53 | |
| 20260507091409 | 64 | 224 | 3.0 | 7.0 | 0.00 | 0.00 | 0.00 | 51 | |
| 20260507090908 | 62 | 208 | 3.0 | 6.0 | 0.00 | 0.00 | 0.00 | 49 | |
| 20260507090407 | 62 | 252 | 3.0 | 7.0 | 0.00 | 0.00 | 0.00 | 47 | |
| 20260507085907 | 62 | 257 | 5.0 | 7.0 | 0.00 | 0.00 | 0.00 | 46 | |
| 20260507085406 | 63 | 241 | 5.0 | 7.0 | 0.00 | 0.00 | 0.00 | 48 | |
| 20260507084905 | 64 | 274 | 3.0 | 6.0 | 0.00 | 0.00 | 0.00 | 48 | |
| 20260507084401 | 66 | 294 | 3.0 | 5.0 | 0.00 | 0.00 | 0.00 | 45 | |
| 20260507083901 | 66 | 166 | 2.0 | 7.0 | 0.00 | 0.00 | 0.00 | 46 | |
| 20260507083400 | 65 | 127 | 2.0 | 6.0 | 0.00 | 0.00 | 0.00 | 45 | |
| 20260507082859 | 64 | 203 | 2.0 | 6.0 | 0.00 | 0.00 | 0.00 | 44 | |
| 20260507082358 | 64 | 248 | 3.0 | 5.0 | 0.00 | 0.00 | 0.00 | 46 | |
| 20260507081854 | 64 | 256 | 2.0 | 6.0 | 0.00 | 0.00 | 0.00 | 44 | |
| 20260507081351 | 64 | 270 | 3.0 | 6.0 | 0.00 | 0.00 | 0.00 | 43 | |
| 20260507080850 | 64 | 268 | 2.0 | 6.0 | 0.00 | 0.00 | 0.00 | 41 | |
| 20260507080349 | 64 | 257 | 3.0 | 6.0 | 0.00 | 0.00 | 0.00 | 43 | |
| 20260507075848 | 66 | 315 | 4.0 | 6.0 | 0.00 | 0.00 | 0.00 | 39 | |
| 20260507075347 | 65 | 43 | 4.0 | 7.0 | 0.00 | 0.00 | 0.00 | 42 | |
| 20260507074847 | 66 | 43 | 3.0 | 7.0 | 0.00 | 0.00 | 0.00 | 40 | |
| 20260507074343 | 66 | 41 | 2.0 | 5.0 | 0.00 | 0.00 | 0.00 | 42 | |
| 20260507073842 | 64 | 312 | 1.0 | 5.0 | 0.00 | 0.00 | 0.00 | 44 | |
| 20260507073341 | 65 | 35 | 3.0 | 6.0 | 0.00 | 0.00 | 0.00 | 42 | |
| 20260507072840 | 64 | 42 | 3.0 | 6.0 | 0.00 | 0.00 | 0.00 | 42 | |
| 20260507072340 | 65 | 57 | 3.0 | 6.0 | 0.00 | 0.00 | 0.00 | 43 | |
| 20260507071839 | 66 | 346 | 2.0 | 6.0 | 0.00 | 0.00 | 0.00 | 45 | |
| 20260507071338 | 66 | 27 | 2.0 | 6.0 | 0.00 | 0.00 | 0.00 | 46 | |
| 20260507070837 | 66 | 36 | 2.0 | 6.0 | 0.00 | 0.00 | 0.00 | 45 | |
| 20260507070336 | 67 | 159 | 2.0 | 3.0 | 0.00 | 0.00 | 0.00 | 44 | |
| 20260507065835 | 65 | 125 | 1.0 | 3.0 | 0.00 | 0.00 | 0.00 | 45 | |
| 20260507065334 | 64 | 255 | 1.0 | 6.0 | 0.00 | 0.00 | 0.00 | 49 | |
| 20260507064833 | 63 | 325 | 1.0 | 6.0 | 0.00 | 0.00 | 0.00 | 49 | |
| 20260507064333 | 64 | 317 | 2.0 | 4.0 | 0.00 | 0.00 | 0.00 | 46 | |
| 20260507063832 | 65 | 254 | 1.0 | 3.0 | 0.00 | 0.00 | 0.00 | 45 | |
| 20260507063331 | 63 | 170 | 1.0 | 4.0 | 0.00 | 0.00 | 0.00 | 47 | |
| 20260507062830 | 62 | 167 | 0.0 | 4.0 | 0.00 | 0.00 | 0.00 | 50 | |
| 20260507062329 | 61 | 288 | 1.0 | 3.0 | 0.00 | 0.00 | 0.00 | 42 | |
| 20260507061828 | 62 | 223 | 1.0 | 5.0 | 0.00 | 0.00 | 0.00 | 44 | |
| 20260507061327 | 62 | 131 | 3.0 | 5.0 | 0.00 | 0.00 | 0.00 | 43 | |
| 20260507060827 | 62 | 144 | 3.0 | 5.0 | 0.00 | 0.00 | 0.00 | 45 | |
| 20260507060326 | 61 | 24 | 1.0 | 4.0 | 0.00 | 0.00 | 0.00 | 47 | |
| 20260507055825 | 60 | 33 | 2.0 | 4.0 | 0.00 | 0.00 | 0.00 | 47 | |
| 20260507055324 | 59 | 41 | 3.0 | 4.0 | 0.00 | 0.00 | 0.00 | 48 | |
| 20260507054823 | 59 | 50 | 3.0 | 4.0 | 0.00 | 0.00 | 0.00 | 48 | |
| 20260507054322 | 59 | 23 | 3.0 | 4.0 | 0.00 | 0.00 | 0.00 | 50 | |
| 20260507053822 | 58 | 24 | 3.0 | 4.0 | 0.00 | 0.00 | 0.00 | 54 | |
| 20260507053317 | 56 | 44 | 4.0 | 4.0 | 0.00 | 0.00 | 0.00 | 57 | |
| 20260507052816 | 53 | 13 | 2.0 | 3.0 | 0.00 | 0.00 | 0.00 | 61 | |
| 20260507052315 | 51 | 19 | 2.0 | 4.0 | 0.00 | 0.00 | 0.00 | 63 | |
| 20260507051814 | 51 | 317 | 3.0 | 5.0 | 0.00 | 0.00 | 0.00 | 65 | |
| 20260507051314 | 51 | 299 | 3.0 | 6.0 | 0.00 | 0.00 | 0.00 | 65 | |
| 20260507050813 | 51 | 315 | 4.0 | 7.0 | 0.00 | 0.00 | 0.00 | 66 | |
| 20260507050312 | 51 | 315 | 4.0 | 7.0 | 0.00 | 0.00 | 0.00 | 66 | |
| 20260507045811 | 51 | 315 | 5.0 | 6.0 | 0.00 | 0.00 | 0.00 | 66 | |
| 20260507045307 | 50 | 315 | 5.0 | 7.0 | 0.00 | 0.00 | 0.00 | 67 | |
| 20260507044807 | 51 | 315 | 6.0 | 8.0 | 0.00 | 0.00 | 0.00 | 67 | |
| 20260507044306 | 51 | 315 | 6.0 | 8.0 | 0.00 | 0.00 | 0.00 | 67 | |
| 20260507043805 | 50 | 315 | 7.0 | 8.0 | 0.00 | 0.00 | 0.00 | 67 | |
| 20260507043304 | 50 | 315 | 7.0 | 9.0 | 0.00 | 0.00 | 0.00 | 67 | |
| 20260507042803 | 50 | 316 | 8.0 | 10.0 | 0.00 | 0.00 | 0.00 | 68 | |
| 20260507042306 | 50 | 316 | 7.0 | 11.0 | 0.00 | 0.00 | 0.00 | 68 | |
| 20260507041801 | 50 | 316 | 9.0 | 11.0 | 0.00 | 0.00 | 0.00 | 67 | |
| 20260507041300 | 50 | 316 | 9.0 | 12.0 | 0.00 | 0.00 | 0.00 | 67 | |
| 20260507040759 | 50 | 317 | 9.0 | 12.0 | 0.00 | 0.00 | 0.00 | 67 | |
| 20260507040256 | 50 | 317 | 11.0 | 13.0 | 0.00 | 0.00 | 0.00 | 66 | |
| 20260507035755 | 50 | 315 | 11.0 | 13.0 | 0.00 | 0.00 | 0.00 | 66 | |
| 20260507035254 | 50 | 317 | 10.0 | 13.0 | 0.00 | 0.00 | 0.00 | 66 | |
| 20260507034753 | 50 | 318 | 11.0 | 15.0 | 0.00 | 0.00 | 0.00 | 65 | |
| 20260507034253 | 50 | 318 | 12.0 | 15.0 | 0.00 | 0.00 | 0.00 | 64 | |
| 20260507033749 | 50 | 321 | 12.0 | 15.0 | 0.00 | 0.00 | 0.00 | 63 | |
| 20260507033248 | 50 | 334 | 11.0 | 15.0 | 0.00 | 0.00 | 0.00 | 62 | |
| 20260507032747 | 50 | 329 | 13.0 | 16.0 | 0.00 | 0.00 | 0.00 | 62 | |
| 20260507032247 | 50 | 330 | 13.0 | 16.0 | 0.00 | 0.00 | 0.00 | 62 | |
| 20260507031746 | 50 | 330 | 12.0 | 15.0 | 0.00 | 0.00 | 0.00 | 62 | |
| 20260507031245 | 50 | 335 | 11.0 | 17.0 | 0.00 | 0.00 | 0.00 | 62 | |
| 20260507030744 | 50 | 335 | 12.0 | 17.0 | 0.00 | 0.00 | 0.00 | 62 | |
| 20260507030241 | 50 | 330 | 12.0 | 16.0 | 0.00 | 0.00 | 0.00 | 61 | |
| 20260507025740 | 51 | 318 | 13.0 | 16.0 | 0.00 | 0.00 | 0.00 | 61 | |
| 20260507025239 | 51 | 322 | 12.0 | 16.0 | 0.00 | 0.00 | 0.00 | 61 | |
| 20260507024738 | 51 | 320 | 12.0 | 15.0 | 0.00 | 0.00 | 0.00 | 61 | |
| 20260507024238 | 51 | 318 | 13.0 | 15.0 | 0.00 | 0.00 | 0.00 | 61 | |
| 20260507023737 | 51 | 319 | 12.0 | 16.0 | 0.00 | 0.00 | 0.00 | 62 | |
| 20260507023236 | 51 | 319 | 12.0 | 18.0 | 0.00 | 0.00 | 0.00 | 61 | |
| 20260507022735 | 51 | 318 | 14.0 | 18.0 | 0.00 | 0.00 | 0.00 | 61 | |
| 20260507022234 | 51 | 317 | 14.0 | 17.0 | 0.00 | 0.00 | 0.00 | 60 | |
| 20260507021733 | 51 | 318 | 13.0 | 16.0 | 0.00 | 0.00 | 0.00 | 60 | |
| 20260507021232 | 51 | 319 | 12.0 | 16.0 | 0.00 | 0.00 | 0.00 | 61 | |
| 20260507020732 | 51 | 317 | 13.0 | 15.0 | 0.00 | 0.00 | 0.00 | 60 | |
| 20260507020231 | 51 | 319 | 11.0 | 13.0 | 0.00 | 0.00 | 0.00 | 60 | |
| 20260507015730 | 51 | 317 | 11.0 | 13.0 | 0.00 | 0.00 | 0.00 | 60 | |
| 20260507015229 | 52 | 317 | 11.0 | 13.0 | 0.00 | 0.00 | 0.00 | 61 | |
| 20260507014726 | 52 | 317 | 10.0 | 13.0 | 0.00 | 0.00 | 0.00 | 59 | |
| 20260507014225 | 52 | 316 | 11.0 | 13.0 | 0.00 | 0.00 | 0.00 | 58 | |
| 20260507013721 | 52 | 317 | 11.0 | 12.0 | 0.00 | 0.00 | 0.00 | 58 | |
| 20260507013220 | 52 | 316 | 10.0 | 12.0 | 0.00 | 0.00 | 0.00 | 58 | |
| 20260507012719 | 52 | 317 | 10.0 | 11.0 | 0.00 | 0.00 | 0.00 | 59 | |
| 20260507012219 | 52 | 317 | 9.0 | 11.0 | 0.00 | 0.00 | 0.00 | 59 | |
| 20260507011718 | 52 | 316 | 9.0 | 13.0 | 0.00 | 0.00 | 0.00 | 60 | |
| 20260507011217 | 52 | 318 | 10.0 | 13.0 | 0.00 | 0.00 | 0.00 | 63 | |
| 20260507010716 | 52 | 317 | 10.0 | 13.0 | 0.00 | 0.00 | 0.00 | 59 | |
| 20260507010215 | 52 | 316 | 10.0 | 12.0 | 0.00 | 0.00 | 0.00 | 58 | |
| 20260507005712 | 52 | 316 | 9.0 | 10.0 | 0.00 | 0.00 | 0.00 | 60 | |
| 20260507005211 | 52 | 315 | 9.0 | 10.0 | 0.00 | 0.00 | 0.00 | 61 | |
| 20260507004710 | 52 | 317 | 9.0 | 10.0 | 0.00 | 0.00 | 0.00 | 57 | |
| 20260507004209 | 52 | 315 | 8.0 | 10.0 | 0.00 | 0.00 | 0.00 | 55 | |
| 20260507003708 | 52 | 316 | 9.0 | 10.0 | 0.00 | 0.00 | 0.00 | 55 | |
| 20260507003207 | 52 | 315 | 9.0 | 11.0 | 0.00 | 0.00 | 0.00 | 56 | |
| 20260507002707 | 52 | 315 | 9.0 | 11.0 | 0.00 | 0.00 | 0.00 | 57 | |
| 20260507002206 | 52 | 315 | 9.0 | 10.0 | 0.00 | 0.00 | 0.00 | 54 | |
| 20260507001705 | 53 | 315 | 9.0 | 11.0 | 0.00 | 0.00 | 0.00 | 54 | |
| 20260507001204 | 53 | 314 | 10.0 | 13.0 | 0.00 | 0.00 | 0.00 | 54 | |
| 20260507000703 | 53 | 273 | 12.0 | 12.0 | 0.00 | 0.00 | 0.00 | 57 | |
| 20260507000204 | 53 | 297 | 10.0 | 13.0 | 0.00 | 0.00 | 0.00 | 54 | |
| 20260506235701 | 53 | 288 | 11.0 | 13.0 | 0.00 | 0.00 | 0.00 | 54 | |
| 20260506235201 | 53 | 295 | 10.0 | 10.0 | 0.00 | 0.00 | 0.00 | 54 | |
| 20260506234657 | 53 | 292 | 9.0 | 11.0 | 0.00 | 0.00 | 0.00 | 53 | |
| 20260506234156 | 53 | 271 | 10.0 | 11.0 | 0.00 | 0.00 | 0.00 | 53 | |
| 20260506233655 | 53 | 270 | 10.0 | 11.0 | 0.00 | 0.00 | 0.00 | 54 | |
| 20260506233155 | 53 | 271 | 10.0 | 10.0 | 0.00 | 0.00 | 0.00 | 54 | |
| 20260506232654 | 53 | 270 | 9.0 | 10.0 | 0.00 | 0.00 | 0.00 | 54 | |
| 20260506232153 | 53 | 272 | 9.0 | 10.0 | 0.00 | 0.00 | 0.00 | 55 | |
| 20260506231649 | 53 | 312 | 8.0 | 11.0 | 0.00 | 0.00 | 0.00 | 55 | |
| 20260506231148 | 53 | 307 | 8.0 | 11.0 | 0.00 | 0.00 | 0.00 | 54 | |
| 20260506230648 | 53 | 281 | 9.0 | 12.0 | 0.00 | 0.00 | 0.00 | 54 | |
| 20260506230147 | 53 | 271 | 10.0 | 12.0 | 0.00 | 0.00 | 0.00 | 55 | |
| 20260506225646 | 53 | 270 | 10.0 | 11.0 | 0.00 | 0.00 | 0.00 | 55 | |
| 20260506225142 | 53 | 270 | 9.0 | 11.0 | 0.00 | 0.00 | 0.00 | 56 | |
| 20260506224642 | 53 | 268 | 8.0 | 10.0 | 0.00 | 0.00 | 0.00 | 55 | |
| 20260506224141 | 53 | 268 | 9.0 | 9.0 | 0.00 | 0.00 | 0.00 | 55 | |
| 20260506223640 | 53 | 270 | 8.0 | 9.0 | 0.00 | 0.00 | 0.00 | 54 | |
| 20260506223139 | 53 | 270 | 8.0 | 10.0 | 0.00 | 0.00 | 0.00 | 54 | |
| 20260506222638 | 53 | 260 | 8.0 | 10.0 | 0.00 | 0.00 | 0.00 | 55 | |
| 20260506222137 | 54 | 250 | 8.0 | 10.0 | 0.00 | 0.00 | 0.00 | 55 | |
| 20260506221636 | 54 | 239 | 8.0 | 10.0 | 0.00 | 0.00 | 0.00 | 55 | |
| 20260506221135 | 53 | 225 | 8.0 | 10.0 | 0.00 | 0.00 | 0.00 | 56 | |
| 20260506220635 | 54 | 228 | 7.0 | 10.0 | 0.00 | 0.00 | 0.00 | 56 | |
| 20260506220134 | 54 | 225 | 8.0 | 10.0 | 0.00 | 0.00 | 0.00 | 56 | |
| 20260506215633 | 54 | 226 | 9.0 | 10.0 | 0.00 | 0.00 | 0.00 | 56 | |
| 20260506215132 | 53 | 227 | 7.0 | 9.0 | 0.00 | 0.00 | 0.00 | 55 | |
| 20260506214631 | 52 | 227 | 4.0 | 5.0 | 0.00 | 0.00 | 0.00 | 54 | |
| 20260506214130 | 52 | 268 | 2.0 | 3.0 | 0.00 | 0.00 | 0.00 | 55 | |
| 20260506213630 | 52 | 230 | 3.0 | 3.0 | 0.00 | 0.00 | 0.00 | 56 | |
| 20260506213126 | 51 | 254 | 0.0 | 1.0 | 0.00 | 0.00 | 0.00 | 56 | |
| 20260506212622 | 51 | 315 | 0.0 | 2.0 | 0.00 | 0.00 | 0.00 | 56 | |
| 20260506212121 | 52 | 315 | 0.0 | 3.0 | 0.00 | 0.00 | 0.00 | 56 | |
| 20260506211620 | 52 | 272 | 2.0 | 3.0 | 0.00 | 0.00 | 0.00 | 55 | |
| 20260506211119 | 52 | 282 | 2.0 | 3.0 | 0.00 | 0.00 | 0.00 | 54 | |
| 20260506210619 | 52 | 270 | 3.0 | 4.0 | 0.00 | 0.00 | 0.00 | 55 | |
| 20260506210118 | 52 | 270 | 3.0 | 4.0 | 0.00 | 0.00 | 0.00 | 56 | |
| 20260506205617 | 52 | 270 | 3.0 | 3.0 | 0.00 | 0.00 | 0.00 | 57 | |
| 20260506205116 | 52 | 270 | 2.0 | 4.0 | 0.00 | 0.00 | 0.00 | 60 | |
| 20260506204616 | 52 | 270 | 3.0 | 4.0 | 0.00 | 0.00 | 0.00 | 63 | |
| 20260506204114 | 52 | 270 | 3.0 | 4.0 | 0.00 | 0.00 | 0.00 | 63 | |
| 20260506203613 | 52 | 229 | 3.0 | 4.0 | 0.00 | 0.00 | 0.00 | 65 | |
| 20260506203112 | 52 | 225 | 3.0 | 4.0 | 0.00 | 0.00 | 0.00 | 64 | |
| 20260506202611 | 52 | 230 | 3.0 | 4.0 | 0.00 | 0.00 | 0.00 | 61 | |
| 20260506202110 | 52 | 225 | 3.0 | 4.0 | 0.00 | 0.00 | 0.00 | 62 | |
| 20260506201609 | 52 | 225 | 3.0 | 4.0 | 0.00 | 0.00 | 0.00 | 67 | |
| 20260506201108 | 53 | 225 | 3.0 | 5.0 | 0.00 | 0.00 | 0.00 | 71 | |
| 20260506200605 | 53 | 181 | 4.0 | 6.0 | 0.00 | 0.00 | 0.00 | 72 | |
| 20260506200104 | 52 | 180 | 5.0 | 6.0 | 0.00 | 0.00 | 0.00 | 71 | |
| 20260506195603 | 52 | 180 | 4.0 | 5.0 | 0.00 | 0.00 | 0.00 | 71 | |
| 20260506195102 | 52 | 180 | 4.0 | 4.0 | 0.00 | 0.00 | 0.00 | 74 | |
| 20260506194559 | 53 | 180 | 3.0 | 4.0 | 0.00 | 0.00 | 0.00 | 75 | |
| 20260506194058 | 53 | 224 | 3.0 | 4.0 | 0.00 | 0.00 | 0.00 | 75 | |
| 20260506193557 | 53 | 225 | 3.0 | 4.0 | 0.00 | 0.00 | 0.00 | 75 | |
| 20260506193056 | 52 | 224 | 3.0 | 4.0 | 0.00 | 0.00 | 0.00 | 75 | |
| 20260506192555 | 52 | 225 | 3.0 | 4.0 | 0.00 | 0.00 | 0.00 | 76 | |
| 20260506192054 | 52 | 225 | 3.0 | 3.0 | 0.00 | 0.00 | 0.00 | 77 | |
| 20260506191553 | 52 | 225 | 1.0 | 2.0 | 0.00 | 0.00 | 0.00 | 77 | |
| 20260506191053 | 52 | 225 | 1.0 | 3.0 | 0.00 | 0.00 | 0.00 | 75 | |
| 20260506190552 | 52 | 196 | 2.0 | 3.0 | 0.00 | 0.00 | 0.00 | 75 | |
| 20260506190051 | 53 | 211 | 2.0 | 4.0 | 0.00 | 0.00 | 0.00 | 73 | |
| 20260506185549 | 53 | 225 | 3.0 | 4.0 | 0.00 | 0.00 | 0.00 | 74 | |
| 20260506185049 | 53 | 193 | 3.0 | 3.0 | 0.00 | 0.00 | 0.00 | 73 | |
| 20260506184548 | 54 | 191 | 3.0 | 4.0 | 0.00 | 0.00 | 0.00 | 71 | |
| 20260506184047 | 54 | 180 | 3.0 | 4.0 | 0.00 | 0.00 | 0.00 | 69 | |
| 20260506183545 | 55 | 180 | 2.0 | 4.0 | 0.00 | 0.00 | 0.00 | 67 | |
| 20260506183044 | 55 | 183 | 3.0 | 4.0 | 0.00 | 0.00 | 0.00 | 66 | |
| 20260506182543 | 56 | 178 | 2.0 | 3.0 | 0.00 | 0.00 | 0.00 | 67 | |
| 20260506182042 | 56 | 200 | 2.0 | 3.0 | 0.00 | 0.00 | 0.00 | 67 | |
| 20260506181542 | 57 | 225 | 2.0 | 4.0 | 0.00 | 0.00 | 0.00 | 67 | |
| 20260506181041 | 58 | 225 | 3.0 | 5.0 | 0.00 | 0.00 | 0.00 | 64 | |
| 20260506180540 | 59 | 211 | 3.0 | 5.0 | 0.00 | 0.00 | 0.00 | 59 | |
| 20260506180039 | 59 | 205 | 4.0 | 5.0 | 0.00 | 0.00 | 0.00 | 61 | |
| 20260506175538 | 60 | 225 | 4.0 | 5.0 | 0.00 | 0.00 | 0.00 | 60 | |
| 20260506175037 | 60 | 237 | 4.0 | 6.0 | 0.00 | 0.00 | 0.00 | 63 | |
| 20260506174537 | 60 | 226 | 4.0 | 6.0 | 0.00 | 0.00 | 0.00 | 63 | |
| 20260506174036 | 60 | 227 | 4.0 | 7.0 | 0.00 | 0.00 | 0.00 | 66 | |
| 20260506173535 | 60 | 230 | 4.0 | 7.0 | 0.00 | 0.00 | 0.00 | 71 | |
| 20260506173034 | 60 | 254 | 4.0 | 6.0 | 0.00 | 0.00 | 0.00 | 73 | |
| 20260506172533 | 60 | 262 | 4.0 | 8.0 | 0.00 | 0.00 | 0.00 | 75 | |
| 20260506172032 | 61 | 265 | 5.0 | 8.0 | 0.00 | 0.00 | 0.00 | 73 | |
| 20260506171531 | 61 | 254 | 4.0 | 8.0 | 0.00 | 0.00 | 0.00 | 72 | |
| 20260506171030 | 62 | 257 | 4.0 | 8.0 | 0.00 | 0.00 | 0.00 | 73 | |
| 20260506170529 | 62 | 270 | 4.0 | 8.0 | 0.00 | 0.00 | 0.00 | 76 | |
| 20260506170028 | 62 | 238 | 4.0 | 7.0 | 0.00 | 0.00 | 0.00 | 77 | |
| 20260506165527 | 61 | 260 | 2.0 | 9.0 | 0.00 | 0.00 | 0.00 | 77 | |
| 20260506165027 | 61 | 269 | 4.0 | 8.0 | 0.00 | 0.00 | 0.00 | 78 | |
| 20260506164523 | 61 | 251 | 5.0 | 9.0 | 0.00 | 0.00 | 0.00 | 79 | |
| 20260506164022 | 61 | 263 | 5.0 | 10.0 | 0.00 | 0.00 | 0.00 | 79 | |
| 20260506163521 | 60 | 263 | 7.0 | 10.0 | 0.00 | 0.00 | 0.00 | 79 | |
| 20260506163020 | 60 | 265 | 6.0 | 11.0 | 0.00 | 0.00 | 0.00 | 81 | |
| 20260506162519 | 60 | 266 | 5.0 | 12.0 | 0.00 | 0.00 | 0.00 | 80 | |
| 20260506162018 | 61 | 260 | 8.0 | 12.0 | 0.00 | 0.00 | 0.00 | 80 | |
| 20260506161515 | 61 | 255 | 6.0 | 11.0 | 0.00 | 0.00 | 0.00 | 80 | |
| 20260506161014 | 62 | 278 | 6.0 | 11.0 | 0.00 | 0.00 | 0.00 | 78 | |
| 20260506160513 | 62 | 289 | 4.0 | 9.0 | 0.00 | 0.00 | 0.00 | 80 | |
| 20260506160012 | 62 | 267 | 6.0 | 9.0 | 0.00 | 0.00 | 0.00 | 81 |